Location: Unspecified
(0.0000°N, 0.0000°E)
Time: 21:24:53
(UTC+02:00)

Hubble Space Telescope - Visible Passes

Search period start: 21 August 2018 00:00
Search period end: 31 August 2018 00:00
Orbit: 537 x 541 km, 28.5° (Epoch: 20 August)

Date Brightness Start Highest point End Pass type
(mag) Time Alt. Az. Time Alt. Az. Time Alt. Az.
21 Aug 2.2 06:13:26 32° SE 06:13:26 32° SE 06:16:34 10° E visible
22 Aug 2.4 06:03:57 32° E 06:03:57 32° E 06:06:26 10° ENE visible
23 Aug 3.0 05:54:28 24° ENE 05:54:28 24° ENE 05:56:11 10° ENE visible
23 Aug 2.6 07:30:23 10° WNW 07:33:16 18° NNW 07:36:08 10° NNE visible
24 Aug 3.6 05:44:57 16° NE 05:44:57 16° NE 05:45:50 10° NE visible
24 Aug 3.0 07:20:55 10° WNW 07:22:57 13° NNW 07:24:59 10° N visible
